{"data":{"norad_id":53894,"intl_designator":"2022-119J","name":"STARLINK-5043","alt_names":[],"object_type":"PAYLOAD","status":"ACTIVE","operator":null,"country":"US","launch_date":"2022-09-24","launch_site_code":"AFETR","launch_vehicle":null,"mission":null,"orbit_class":"UNKNOWN","rcs_meters":null,"size_class":null,"mass_kg":null,"dimensions":null,"purposes":["comms"],"wikipedia_slug":null,"has_3d_model":false,"image_url":null,"decayed_at":null,"tle_current":{"epoch":"2026-09-20T22:19:04.970496Z","epoch_age_seconds":47203,"freshness":"FRESH","line1":"1 53894U 22119J   26263.92991864 -.00000253  00000+0  36236-5 0  9996","line2":"2 53894  53.1611 144.5791 0001328  91.1886 268.9268 15.31698441221486","mean_motion":15.31698441,"eccentricity":0.0001328,"inclination_deg":53.1611,"raan_deg":144.5791,"arg_perigee_deg":91.1886,"mean_anomaly_deg":268.9268,"bstar":3.6236e-6,"rev_number":22148,"period_min":94.013283650003,"perigee_km":469.83511104534,"apogee_km":471.65417400959,"semimajor_km":6848.8816425275,"source":"CELESTRAK","updated_at":"2026-09-21T09:00:33.029775Z"}}}